星链-32301 (STARLINK-32301)

导读

STARLINK-32301是美国太空探索技术公司(SpaceX)于2024年10月26日发射的星链(Starlink)低轨互联网卫星,属于星链全球卫星互联网星座的组成部分。星链项目旨在为全球提供高速、低延迟的宽带互联网服务,尤其覆盖偏远和网络基础设施薄弱区域,该卫星入轨后将与其他星链卫星协同,推进星座组网,进一步完善全球卫星互联网覆盖能力。

基本信息
目录编号:
61664
目录名称:
STARLINK-32301
国际标识:
2024-193D
轨道中心:
EARTH
卫星名称:
星链-32301
卫星全名:
星链-32301 (STARLINK-32301)
卫星状态:
在轨 (已飞行599 天)
发射日期:
2024-10-26 UTC
国别 :
美国 (US)
星等 :
--
轨道信息
数据来源 国际轨道数据 AOE轨道数据
星历时间 2026-06-17T03:03:58+0800
1天前
查看轨道信息
2026-06-13T18:00:00+0800
4天前
查看轨道信息
半长轴 6848.839km 6848.877km
偏心率 0.0001124 0.0001367
轨道倾角 53.162° 53.160°
近地点辐角 86.665° 78.246°
升交点赤经 350.422° 6.148°
平近点角 273.448° 6.087°
近地点 469.932km 469.803km
远地点 471.472km 471.677km
周期 94.012分钟 94.013分钟
每日圈数 15.31713 15.317
详细信息
固有亮度:
5
最大亮度:
2.5
卫星平台:
Starlink V1.0
覆盖范围:
全球
运营商:
太空探索技术公司
运营商所在国:
美国
制造商(研发单位):
太空探索技术公司
制造商所在国:
美国
使用方式:
暂无
卫星简介
Starlink 计划是 SpaceX 推出的全球卫星互联网项目,通过发射低轨道卫星,为全球尤其是偏远地区提供高速、低延迟的互联网服务。自 2019 年起,Starlink 已部署数千颗卫星,旨在缩小全球数字鸿沟,推动互联网普及。该项目还为军事、航空等行业提供通信支持,带来广泛经济效益。
2D轨道图
3D轨道图
轨道高度分析图
轨道倾角分析图
轨道综合分析图
查看轨道综合分析图